Regional Weather Roundup
Issued by NWS Wakefield, VA

Home | Current Version | Previous Version | Graphics & Text | Print | Product List | Glossary On
Versions: 1 2 3 4 5 6 7 8 9 10 11 12 13 14 15 16 17 18 19 20 21 22 23 24 25 26 27 28 29 30 31 32 33 34 35 36 37 38 39 40 41 42 43 44 45 46 47 48 49 50
000
ASUS41 KAKQ 191515
RWRAKQ

REGIONAL WEATHER ROUNDUP
NATIONAL WEATHER SERVICE WAKEFIELD VA
1000 AM EST THU JAN 19 2017

Note: "fair" indicates few or no clouds below 12,000 feet with no
significant weather and/or obstructions to visibility. * = Denotes
station may not report precipitation (e.g., rain,snow,etc.),
thunder or fog.

VAZ042-051-052>054-056-191600-
NORTHERN VIRGINIA

CITY           SKY/WX    TMP DP  RH WIND       PRES   REMARKS
WASH NATIONAL  CLOUDY    49  37  63 NW12      30.12R
DULLES         PTSUNNY   47  35  63 NW7       30.11R
FORT BELVOIR   CLOUDY    47  36  63 NW5       30.12R
QUANTICO       CLOUDY    40  39  97 S6        30.14R
FREDERICKSBRG* CLOUDY    42  39  87 W3        30.12S
STAFFORD*      CLOUDY    41  38  90 CALM      30.16S
WARRENTON      CLOUDY    40  34  79 CALM      30.12S
CULPEPER*      CLOUDY    40  37  91 CALM      30.14S
MANASSAS*      CLOUDY   N/A N/A N/A CALM      30.13R
LEESBURG*      CLOUDY    48  39  71 NW3       30.11S
WINCHESTER     CLOUDY    43  34  70 S6        30.10S
FRONT ROYAL*   FAIR      37  36  93 CALM      30.11R
LURAY*         FAIR      36  36 100 W5        30.11S
$$

VAZ048-049-060>072-079>083-191600-
CENTRAL AND SOUTH CENTRAL VIRGINIA

CITY           SKY/WX    TMP DP  RH WIND       PRES   REMARKS
RICHMOND       CLOUDY    46  38  73 CALM      30.14R
CHESTERFIELD*  FAIR      45  25  45 CALM      30.16R
PETERSBURG*    PTSUNNY   45  37  76 CALM      30.15R
HANOVER        MOSUNNY   44  36  73 NW3       30.15R
TAPPAHANNOCK*  MOSUNNY   45  36  69 CALM      30.14R
QUINTON*       FAIR      42  39  87 MISG      30.13R
CHARLOTTSVILLE CLOUDY    41  37  86 CALM      30.12R
GORDONSVILLE*  FAIR      41  38  87 CALM      30.13R
ORANGE*          N/A     41  39  93 CALM      30.14S
LOUISA*        CLOUDY    45  39  81 CALM      30.11S
BUMPASS*       FAIR      41  38  88 CALM      30.13R
FARMVILLE*     MOSUNNY   45  40  82 CALM      30.13R
CREWE*         FAIR      45  39  79 CALM      30.14R
FORT PICKETT*  FAIR      46  34  63 SE5       30.14R
CHASE CITY*    FAIR      46  36  68 E3        30.14R
CLARKSVILLE*   FAIR      45  37  76 CALM      30.13S
SOUTH HILL*    CLOUDY    45  37  73 NE5       30.20R
LAWRENCEVILLE* FAIR      46  36  67 NE5       30.14R
EMPORIA*       CLOUDY    45  36  70 CALM      30.16R
$$

VAZ088>098-191600-
SOUTHEAST VIRGINIA

CITY           SKY/WX    TMP DP  RH WIND       PRES   REMARKS
NORFOLK        MOSUNNY   46  38  73 N6        30.11R
VIRGINIA BEACH PTSUNNY   47  40  76 N7        30.10R
NORFOLK NAVAL  PTSUNNY   49  39  68 N5        30.13R
WEST POINT*    CLOUDY    42  39  88 CALM      30.16R
SALUDA*        FAIR      44  38  82 NW3       30.13R
NEWPORT NEWS   MOSUNNY   49  39  68 N6        30.13R
LANGLEY AFB    PTSUNNY   46  38  72 N6        30.12R
FORT EUSTIS    CLOUDY    48  38  69 VRB5      30.11R
WILLIAMSBURG*  MOSUNNY   50  41  71 CALM      30.14R
HR EXEC AP*    FAIR      45  41  87 CALM      30.12R
FRANKLIN*      PTSUNNY   45  39  79 N3        30.15R
US460-WAKEFLD  CLOUDY    45  39  79 N3        30.14R
$$

VAZ020-022-025-037-045-191600-
WEST CENTRAL AND SOUTHWEST VIRGINIA

CITY           SKY/WX    TMP DP  RH WIND       PRES   REMARKS
STAUNTON*      CLOUDY    35  33  93 CALM      30.12S
WAYNESBORO*    FAIR      41  37  84 CALM      30.09S
HOT SPRINGS VA CLOUDY    39  37  93 W10       30.05R
LYNCHBURG      CLOUDY    42  37  82 S6        30.14R
DANVILLE       SUNNY     47  39  74 VRB3      30.13S
SOUTH BOSTON*  FAIR      46  36  68 CALM      30.14S
MARTINSVILLE   MOSUNNY   43  37  77 CALM      30.15R
ROANOKE        SUNNY     47  38  71 VRB3      30.14S
BLACKSBURG     SUNNY     42  38  84 CALM      30.14R
DUBLIN*        CLOUDY    43  41  93 CALM      30.11S
MARION*        CLOUDY    49  40  72 CALM      30.11F
HILLSVILLE*    CLOUDY    44  36  72 CALM      30.08S
RICHLANDS*     FAIR     N/A N/A N/A CALM      30.08S
WISE*          MOSUNNY   48  34  57 SE5       30.08F
ABINGDON*      CLOUDY    47  42  82 E3        30.10R
$$

MDZ021>025-VAZ099-100-191600-
SOUTHERN MARYLAND AND THE DELMARVA PENINSULA

CITY           SKY/WX    TMP DP  RH WIND       PRES   REMARKS
PATUXENT RIVER PTSUNNY   47  37  68 NW5       30.12R
BAY BRIDGE APT MOSUNNY   45  36  70 NW5       30.10S
LEONARDTOWN    MOSUNNY   46  36  66 NW6       30.13R
DOVER          MOSUNNY   47  44  87 NW12      30.08S
GEORGETOWN     CLOUDY    48  37  65 VRB6      30.09
EASTON         PTSUNNY   48  36  61 NW5       30.13S
CAMBRIDGE      CLOUDY    45  36  70 NW3       30.10S
SALISBURY      CLOUDY    48  38  68 N12       30.10R
OCEAN CITY     CLOUDY    47  40  76 N7        30.10R
WALLOPS ISLAND CLOUDY    48  40  73 N6        30.11R
ACCOMACK*      MOSUNNY   47  40  76 NW3       30.10S
$$

NCZ012>017-030>032-191600-
NORTH CENTRAL AND EASTERN NORTH CAROLINA

CITY           SKY/WX    TMP DP  RH WIND       PRES   REMARKS
ROANOKE RAPIDS FAIR      46  37  71 NE5       30.15R
RALEIGH        PTSUNNY   50  38  63 E5        30.13S
ELIZABETH CITY MOSUNNY   47  41  80 NW6       30.13R
AHOSKIE*         N/A     47  38  71 N3        30.16R
EDENTON*       MOSUNNY   49  41  75 NE5       30.14R
CURRITUCK*     MOSUNNY   45  42  88 W3        30.12R
KILL DEVIL HLS NOT AVBL
MANTEO         MOSUNNY   48  46  93 N5        30.11S
CAPE HATTERAS  SUNNY     51  45  79 VRB3      30.11R HAZE
TARBORO*       NOT AVBL
GOLDSBORO      SUNNY     50  44  78 NE6       30.12R
WASHINGTON     SUNNY     49  42  74 E3          N/A
GREENVILLE     SUNNY     45  45 100 E3        30.15R
NEW BERN       SUNNY     50  44  80 N5        30.15R
WILMINGTON     SUNNY     53  46  77 NE8       30.12S
$$

VAZ048-191600-
ELSEWHERE

CITY           SKY/WX    TMP DP  RH WIND       PRES   REMARKS
HARRISBURG PA  CLOUDY    45  35  68 NW7       30.08
BALTIMORE      CLOUDY    46  36  68 W8        30.10R
ANNAPOLIS      CLOUDY    48  35  60 NW7       30.10R
ANDREWS AFB    CLOUDY    46  36  66 NW10      30.10R
PHILADELPHIA   PTSUNNY   47  35  63 N12       30.09S
HENDERSON NC   MOSUNNY   46  35  66 E6        30.13S
GREENSBORO     CLOUDY    46  39  76 CALM      30.11S
ROCKY MOUNT    SUNNY     49  40  71 CALM      30.14S
$$

VAZ100-191600-
MARINE

STATION/POSITION TIME  TEMP    WIND        PRES    WAVE   SWELL
                       AIR SEA DIR/SP/G            HT/PER HT/PER
                 (UTC) (F)     (DEG/KT/KT) (MB)    (FT/S) (FT/S)
CAPE MAY NJ      1448   42 41  330/  1/  3 1018.5S
LEWES DE         1442   44 42  320/  7/  8 1019.0R
OCEAN-CITY-INLET 1442   45 43  360/  5/  7 1019.5R
WACHAPREAGUE VA  1448   49 47  340/  1/  5 1019.4R
THOMAS POINT MD  1500   45 40  310/  5/  6   N/A
GOOSES REEF MD   1450   42     240/  4/  4 1020.2R
COVE POINT MD    1448   44     340/  4/  5 1020.3R
SOLOMONS ISLAND  1442   45 41  290/  3/  4   N/A
BISHOPS HEAD MD  1448   47 44  360/  5/  6 1019.7R
PINEY POINT MD   1448          290/  4/  5   N/A
POTOMAC MD       1450   42     300/  6/  6 1019.0R
CAMBRIDGE MD     1448   45 40  300/  3/  4 1018.9R
LEWISETTA VA     1448   46 43  360/  5/  6 1019.8R
RAPPAHANNOCK LGT 1448          320/  8/  9 1020.1R
STINGRAY PT      1450   42     320/  4/  6 1020.2R
YORK RVR RNG VA  1448   43     350/  7/  8 1019.1R
YORKTOWN VA      1448   43 43  310/  5/  5 1019.6R
JAMESTOWN VA     1450   43     290/  6/  8   N/A
DOMINION TERM VA 1448   46     360/  7/ 10 1019.8R
KIPTOPEKE VA     1442      44  330/  7/  8   N/A
CHES BAY BRIDGE  1448   43 45  340/  6/  8 1019.4R
CAPE HENRY VA    1448   43     320/  6/  6   N/A
WILLOUBY STN VA  1448   45     360/  7/  7 1020.4R
S CRANEY ISL VA  1448   45     330/  4/  7 1019.5R
CAPE HENRY BUOY  1442      48                N/A     4/ 7
OFFSHORE WE BUOY 1451      49                N/A     4/ 7
64NM E OF VA BCH 1450   51 59   10/ 14/ 17 1018.2R   5/ 8   3/ 8
DUCK PIER NC     1448   45 45  340/  8/  8 1018.9R
44100 DUCK FRF   1435      48                N/A     5/ 7
44056 DUCK FRF   1430      45                N/A     4/ 8
OREGON INLET NC  1442   48 49  350/  8/ 10 1019.3R
HATTERAS NC      1448          340/ 11/ 12   N/A
DIAMOND SHLS NC  1450   52 75  360/ 16/ 19 1018.9R   6/11   5/11
CAPE LOOKOUT NC  1400   49      10/  9/ 11 1018.9R
$$



USA.gov is the U.S. government's official web portal to all federal, state and local government web resources and services.